sat.trackr.live / text

‹ back to catalog

STARLINK-31013

NORAD 58526 · 2023-191U

PAYLOAD ACTIVE UNKNOWN

§ Identity

Operator
Country
US
Launch date
2023-12-07
Launch site
AFETR
Launch vehicle
Mass (kg)
RCS (m²)

Purposes: comms

External: N2YO · Heavens-Above · Gunter

§ Orbital elements

Epoch: 2026-09-20T21:25:34.799232Z

Period
95.16 min
Inclination
42.9984°
Eccentricity
0.0011968
Mean motion
15.13234235 rev/d
Perigee alt
518.1 km
Apogee alt
534.6 km
Semi-major
6,904.5 km
B*
2.2839e-3
RAAN
112.6880°
Arg perigee
226.0395°
Mean anomaly
133.9465°
Rev number
15,495

§ Raw data

STARLINK-310131 58526U 23191U   26263.89276388  .00041389  00000+0  22839-2 0  99922 58526  42.9984 112.6880 0011968 226.0395 133.9465 15.13234235154956

JSON: /api/v1/satellites/58526 · /tle

For live sub-satellite position, see the globe view (requires WebGL).

§ Visibility from observer

Set your observer location to see the next 7 days of passes ≥ 10°. The values pass through the URL so the page stays shareable.

No JS? Fill the form by hand. The geolocation button needs JavaScript.